Погода в Маразе

Погода в Маразе : погода сейчас, прогноз погоды и архив. Всё, что Вы хотите узнать о погоде в Маразе!

Поиск расширенной информации на нашем сайте:

Другие новости

Новости СМИ2

Главная страница сайта

Новости сайта

03.07.2017

Напоминаем, что на нашем специализированном сайте Метеоцентр.Азия вы можете получить высокодетализированные автоматические прогнозы погоды по пунктам России, СНГ и мира в авиационном формате (включающие направление и скорость ветра, видимость, явления погоды, количество и форму облачности, нижнюю и верхнюю границу облачности).


Погода в Маразе - сегодня

Время (UTC), дата Ветер
(°,м/с) 
Видим.   Явления Облачность Т
(°С)
Тd
(°С)
f(%) Тe
(°С)
Pmin
(гПа)
dP
(гПа)
Po
(мм)
O2
(г/м3)
Тmin Tmax R s Состояние
почвы
12 13.08.18 тихо ()   20000 м    10/10 600 м 
[Cu med, cong]
+25 +11.2 42 +29  1009.6  -0.9  695  254           
15 13.08.18 020 (С) 20000 м    10/10 600 м 
[Cu med, cong]
+21.1 +14.7 67 +31  1010.9  0.3  695  257           
21 13.08.18 310 (СЗ) 10 км    10/10 600 м 
[Sc]
+20.7 +12.8 61 +28  1012.7  0.3  697  258           
00 14.08.18 тихо ()   10 км    10/10 600 м 
[Sc]
+19.8 +12.1 61 +26  1012.7  -0.2  696  259           
03 14.08.18 020 (С) 20000 м    10/10 600 м 
[Sc]
+21.1 +8.1 43 +21  1013.1  0.6  697  259           
06 14.08.18 350 (С) 20000 м    10/10 600 м 
[Cu med, cong]
+22.3 +8.4 41 +23  1013.4  0.5  697  258  +19.3         
09 14.08.18 060 (СВ) 20000 м    6/6 600 м 
[Cu med, cong]
+25.5 +11 40 +30  1012.8  0.4  698  255           
12 14.08.18 030 (СВ) 20000 м    8/8 600 м 
[Cu med, cong]
+25.7 +11 40 +30  1012.4  -0.3  697  255           
15 14.08.18 010 (С) 20000 м    6/6 600 м 
[Cu med, cong]
+22.3 +11 49 +26  1013.3  697  258           
18 14.08.18 тихо ()   10 км    6/0 верхняя 
[Ci sp]
+20 +10.2 53 +23  1013.8  0.8  697  260    +26.4       
21 14.08.18 300 (СЗ) 10 км    9/9 600 м 
[Sc]
+18.3 +13.9 76 +28  1015.2  0.9  698  261           
00 15.08.18 320 (СЗ) 10 км  ливневой дождь  10/10 600 м кучево-дожд. 
[Cb cap]
+17.4 +14.5 83 +28  1015.3  -0.1  698  261           
06 15.08.18 тихо ()   20000 м  {ливн. осадки}  10/10 600 м 
[Cu med, cong]
+19.9 +15.1 74 +31  1014.6  0.7  698  259  +16.8       
09 15.08.18 110 (В) 20000 м    10/10 600 м 
[Cu med, cong]
+22.6 +14.2 59 +32  1013.7  -0.2  698  257           
12 15.08.18 030 (СВ) 20000 м    9/9 600 м 
[Cu med, cong]
+24.5 +11.7 45 +30  1013.1  -0.1  698  256           
15 15.08.18 тихо ()   20000 м    10/10 600 м 
[Cu med, cong]
+22 +15.9 68 +34  1014  0.3  698  257           
21 15.08.18 тихо ()   10 км    10/10 600 м 
[Sc]
+20 +15.9 77 +32  1015.4  -0.2  698  259           
00 16.08.18 300 (СЗ) 10 км    10/10 600 м 
[Sc]
+18.9 +14 73 +29  1015.4  -0.3  698  260           
03 16.08.18 290 (З) 20000 м    8/0 средняя 
[Ac und]
+19 +14.7 76 +30  1016  0.6  699  260           
06 16.08.18 220 (ЮЗ) 20000 м    4/0 средняя 
[Ac und]
+24.1 +12.4 48 +30  1013.9  -0.7  698  256  +18.2         
09 16.08.18 260 (З) 20000 м    3/3 600 м верхняя 
[Cu med, cong|Ci sp]
+26.8 +11.4 38 +31  1012.3  -0.7  698  254           
12 16.08.18 190 (Ю) 20000 м    3/0 средняя 
[Ac und]
+28.2 +11.5 35 +33  1011.8  -0.1  697  253           
15 16.08.18 110 (В) 20000 м    1/0 средняя 
[Ac As]
+24.5 +16.2 60 +38  1012.1  -0.6  697  254           
18 16.08.18 080 (В) 10 км    ясно 
+20.3 +15.2 73 +31  1013.7  0.2  697  258    +29.1       
21 16.08.18 тихо ()   10 км    ясно 
+17.2 +13.6 79 +25  1013.8  -1.1  697  261           
Время (UTC), дата Ветер
(°,м/с) 
Видим.   Явления Облачность Т
(°С)
Тd
(°С)
f(%) Тe
(°С)
Pmin
(гПа)
dP
(гПа)
Po
(мм)
O2
(г/м3)
Тmin Tmax R s Состояние
почвы

Для получения пояснительной информации подведите курсор к названию столбца.

ПОГОДА в Маразе - архив

Всё, что Вы хотите узнать о погоде в Маразе - удобно и подробно!

Выберите нужную дату (начиная с 1 января 2015* года) и нажмите кнопку "Найти".
Будут отображены архивные сводки погоды по пункту Мараза, начиная с указанной даты.


Отображать данные в формате CSV (для использования в таблицах Excel)


Внимание! Наш архив погоды предназначен исключительно для личного некоммерческого использования в познавательных целях. Если Вам необходимы официальные справки о состоянии погоды (для производственных, юридических, коммерческих и т.п. целей), обращайтесь в органы Росгидромета.

*Примечание: данная дата относится к архиву по метеостанциям СССР (Россия, СНГ, Балтия).
Архив по метеостанциям Зарубежной Европы и Азии (кроме Китая) хранится 10 дней, по другим регионам земного шара (Китай, Африка, Америка, Австралия, Океания) - 1 день.

Мараза - район местоположения метеостанции


Название, широта, долгота, высота метеостанции:
Мараза 40.5°ш. 48.9°д. 755 м над ур. моря [Азербайджан]

Дополнительная информация

В oтличие oт бoльшинства пoгoдных сайтoв мы публикуем пoдрoбную метеoинфoрмацию в детальнoм прoфессиoнальнoм фoрмате.

Характеристики температуры и влажнoсти вoздуха измеряются на высoте 2 м в тени вдали oт зданий и деревьев.
Скoрoсть ветра измеряется на высoте 10 м (на урoвне рoста челoвека скoрoсть ветра ниже в 1.5-2 раза). Если метеoстанция нахoдится в гoрoде или в лесу, тo скoрoсть ветра занижена на 2-4 м/с пo сравнению с oткрытым местoм. Скoрoсть ветра над акватoриями крупных рек и oзёр, а также на вершинах хoлмoв на 2-5 м/с выше, чем в oбычных услoвиях.
Атмoсфернoе давление в разных тoчках местнoсти мoжет значительнo oтличаться oт давления на метеoстанции, в зависимoсти oт услoвий рельефа (при пoдъёме на 10 м давление пoнижается примернo на 1 мм рт.ст.).